Kalaeloa, HI

9:55 PM HST on August 18, 2017 (GMT -1000)
Kalaeloa (John Rodgers Field)

Weather History for PHJR - March, 2014

Change the Weather History Date:

Wednesday, March 19, 2014

  Actual Average (PHHI) Record (PHHI)
Temperature  
Mean Temperature 73 °F -  
Max Temperature 82 °F 74 °F 82 °F (1997)
Min Temperature 64 °F 60 °F 56 °F (2013)
Cooling Degree Days 8    
Growing Degree Days 23 (Base 50)    
Moisture  
Dew Point 58 °F    
Average Humidity 63    
Maximum Humidity 80    
Minimum Humidity 39    
Precipitation  
Precipitation 0.00 in - - ()
Sea Level Pressure  
Sea Level Pressure 29.98 in    
Wind  
Wind Speed 3 mph (NE)    
Max Wind Speed 9 mph    
Max Gust Speed 18 mph    
Visibility 10 miles    
Events      
Averages and records for this station are not official NWS values.
T = Trace of Precipitation, MM = Missing Value Source: NWS Daily Summary

Daily Weather History Graph

Daily Weather History Graph

Search for Another Location

Airport or City:

Trip Planner

Search our weather history database for the weather conditions in past years. The results will help you decide how hot, cold, wet, or windy it might be!

Date:

Astronomy

Mar. 19, 2014 Rise Set
Actual Time 6:37 AM HST 6:43 PM HST
Civil Twilight 6:14 AM HST 7:05 PM HST
Nautical Twilight 5:49 AM HST 7:31 PM HST
Astronomical Twilight 5:23 AM HST 7:57 PM HST
Moon 9:45 PM HST 8:34 AM HST
Length of Visible Light 12h 50m
Length of Day
12h 06m
Waning Gibbous, 90% of the Moon is Illuminated
Mar 19
Waning Gibbous
Mar 23
Last Quarter
Mar 30
New
Apr 6
First Quarter
Apr 14
Full

Hourly Weather History & Observations

Time (HST) Temp. Heat Index Dew Point Humidity Pressure Visibility Wind Dir Wind Speed Gust Speed Precip Events Conditions
12:53 AM 64.0 °F - 57.9 °F 80% 30.01 in 10.0 mi Calm Calm - N/A   Partly Cloudy
1:53 AM 64.9 °F - 57.9 °F 78% 29.99 in 10.0 mi Calm Calm - N/A   Clear
2:53 AM 64.9 °F - 57.9 °F 78% 29.96 in 10.0 mi Calm Calm - N/A   Clear
3:53 AM 64.9 °F - 57.9 °F 78% 29.95 in 10.0 mi Calm Calm - N/A   Clear
4:53 AM 64.9 °F - 57.9 °F 78% 29.95 in 10.0 mi NE 3.5 mph - N/A   Clear
5:53 AM 64.9 °F - 57.9 °F 78% 29.96 in 10.0 mi Calm Calm - N/A   Clear
6:53 AM 64.9 °F - 57.9 °F 78% 29.99 in 10.0 mi Calm Calm - N/A   Clear
7:53 AM 71.1 °F - 60.1 °F 68% 30.00 in 10.0 mi Variable 3.5 mph - N/A   Clear
8:53 AM 75.9 °F - 60.1 °F 58% 30.01 in 10.0 mi Variable 5.8 mph - N/A   Clear
9:53 AM 77.0 °F - 57.0 °F 50% 30.01 in 10.0 mi ENE 8.1 mph - N/A   Partly Cloudy
10:53 AM 78.1 °F - 57.9 °F 50% 30.00 in 10.0 mi Variable 5.8 mph - N/A   Scattered Clouds
11:53 AM 82.0 °F 82.0 °F 57.9 °F 44% 29.98 in 10.0 mi Variable 5.8 mph - N/A   Partly Cloudy
12:36 PM 82.4 °F 81.7 °F 55.4 °F 39% 29.95 in 10.0 mi ENE 9.2 mph - N/A   Scattered Clouds
12:53 PM 82.0 °F 81.6 °F 55.9 °F 41% 29.96 in 10.0 mi Variable 5.8 mph - N/A   Unknown
1:53 PM 82.0 °F 81.6 °F 55.9 °F 41% 29.95 in 10.0 mi Variable 5.8 mph 16.1 mph N/A   Partly Cloudy
2:53 PM 80.1 °F 80.2 °F 55.9 °F 43% 29.93 in 10.0 mi Variable 5.8 mph - N/A   Mostly Cloudy
3:53 PM 78.1 °F - 57.0 °F 48% 29.93 in 10.0 mi Variable 5.8 mph 18.4 mph N/A   Mostly Cloudy
4:53 PM 75.9 °F - 57.9 °F 54% 29.94 in 10.0 mi ENE 9.2 mph - N/A   Scattered Clouds
5:53 PM 75.0 °F - 57.9 °F 55% 29.96 in 10.0 mi Variable 5.8 mph - N/A   Clear
6:53 PM 73.0 °F - 59.0 °F 61% 29.98 in 10.0 mi Variable 3.5 mph - N/A   Clear
7:00 PM 71.6 °F - 59.0 °F 64% 29.96 in 10.0 mi Variable 5.8 mph - N/A   Partly Cloudy
7:53 PM 71.1 °F - 61.0 °F 70% 30.01 in 10.0 mi Variable 3.5 mph - N/A   Clear
8:53 PM 70.0 °F - 61.0 °F 73% 30.03 in 10.0 mi Variable 4.6 mph - N/A   Scattered Clouds
9:53 PM 69.1 °F - 60.1 °F 73% 30.04 in 10.0 mi NNE 4.6 mph - N/A   Clear
10:53 PM 68.0 °F - 60.1 °F 76% 30.04 in 10.0 mi Calm Calm - N/A   Clear
11:53 PM 66.9 °F - 59.0 °F 76% 30.04 in 10.0 mi Calm Calm - N/A   Clear